Fairfield, OH

2:26 AM EST on January 21, 2017 (GMT -0500)
Hamilton

Weather History for KHAO - April, 2013

Change the Weather History Date:

Wednesday, April 24, 2013

  Actual Average (KLUK) Record (KLUK)
Temperature  
Mean Temperature 52 °F -  
Max Temperature 66 °F 65 °F 88 °F (1960)
Min Temperature 36 °F 46 °F 30 °F (2003)
Degree Days  
Heating Degree Days 14    
Growing Degree Days 2 (Base 50)    
Moisture  
Dew Point 44 °F    
Average Humidity 87    
Maximum Humidity 100    
Minimum Humidity 52    
Precipitation  
Precipitation 0.85 in - - ()
Sea Level Pressure  
Sea Level Pressure 29.92 in    
Wind  
Wind Speed 9 mph (WNW)    
Max Wind Speed 20 mph    
Max Gust Speed 28 mph    
Visibility 6 miles    
Events Rain    
Averages and records for this station are not official NWS values.
T = Trace of Precipitation, MM = Missing Value Source: NWS Daily Summary

Daily Weather History Graph

Daily Weather History Graph

Search for Another Location

Airport or City:

Trip Planner

Search our weather history database for the weather conditions in past years. The results will help you decide how hot, cold, wet, or windy it might be!

Date:

Astronomy

Apr. 24, 2013 Rise Set
Actual Time 6:48 AM EDT 8:24 PM EDT
Civil Twilight 6:19 AM EDT 8:53 PM EDT
Nautical Twilight 5:45 AM EDT 9:27 PM EDT
Astronomical Twilight 5:08 AM EDT 10:04 PM EDT
Moon 7:27 PM EDT (4/24) 5:50 AM EDT (4/24)
Length of Visible Light 14h 33m
Length of Day
13h 36m
Waxing Gibbous, 98% of the Moon is Illuminated
Apr 24
Waxing Gibbous
Apr 25
Full
May 2
Last Quarter
May 9
New
May 18
First Quarter

Hourly Weather History & Observations

Time (EDT) Temp. Windchill Dew Point Humidity Pressure Visibility Wind Dir Wind Speed Gust Speed Precip Events Conditions
12:53 AM 66.0 °F - 48.0 °F 52% 29.83 in 10.0 mi South 9.2 mph 17.3 mph N/A   Mostly Cloudy
1:53 AM 66.0 °F - 48.9 °F 54% 29.82 in 10.0 mi SSW 11.5 mph 24.2 mph N/A   Overcast
2:53 AM 66.0 °F - 50.0 °F 56% 29.81 in 10.0 mi SSW 9.2 mph 16.1 mph N/A   Overcast
3:53 AM 66.0 °F - 51.1 °F 59% 29.80 in 10.0 mi SW 10.4 mph 17.3 mph N/A   Overcast
4:53 AM 66.0 °F - 52.0 °F 60% 29.80 in 10.0 mi SSW 9.2 mph 17.3 mph N/A   Overcast
6:51 AM 59.0 °F - 55.4 °F 88% 29.81 in 6.0 mi Variable 4.6 mph - 0.00 in Rain Light Rain
6:53 AM 59.0 °F - 55.9 °F 90% 29.81 in 6.0 mi WNW 5.8 mph - 0.00 in Rain Light Rain
7:32 AM 59.0 °F - 55.4 °F 88% 29.82 in 2.5 mi Variable 6.9 mph - 0.04 in Rain Rain
7:41 AM 53.6 °F - 51.8 °F 94% 29.83 in 3.0 mi WNW 15.0 mph 25.3 mph 0.05 in Rain Light Rain
7:53 AM 51.1 °F - 48.9 °F 92% 29.84 in 10.0 mi WNW 11.5 mph - 0.05 in   Overcast
8:04 AM 51.8 °F - 48.2 °F 88% 29.85 in 3.0 mi Variable 3.5 mph - 0.03 in Rain Rain
8:06 AM 51.8 °F - 48.2 °F 88% 29.85 in 1.5 mi SSW 3.5 mph - 0.05 in Rain Heavy Rain
8:18 AM 50.0 °F - 48.2 °F 94% 29.84 in 1.8 mi Calm Calm - 0.11 in Rain Rain
8:23 AM 50.0 °F - 48.2 °F 94% 29.84 in 3.0 mi WSW 3.5 mph - 0.12 in Rain Rain
8:31 AM 50.0 °F - 48.2 °F 94% 29.85 in 2.0 mi Calm Calm - 0.15 in Rain Rain
8:40 AM 50.0 °F - 48.2 °F 94% 29.84 in 3.0 mi WNW 8.1 mph - 0.17 in Rain Rain
8:53 AM 50.0 °F - 48.9 °F 96% 29.83 in 7.0 mi WNW 8.1 mph - 0.18 in Rain Light Rain
9:05 AM 50.0 °F - 48.2 °F 94% 29.84 in 5.0 mi West 4.6 mph - 0.01 in Rain Light Rain
9:11 AM 48.2 °F - 48.2 °F 100% 29.84 in 1.8 mi WNW 6.9 mph - 0.06 in Rain Heavy Rain
9:18 AM 48.2 °F - 48.2 °F 100% 29.85 in 1.2 mi WNW 9.2 mph - 0.10 in Rain Heavy Rain
9:31 AM 46.4 °F 40.7 °F 46.4 °F 100% 29.85 in 2.0 mi WNW 12.7 mph - 0.19 in Rain Heavy Rain
9:41 AM 46.4 °F 40.7 °F 44.6 °F 93% 29.83 in 2.5 mi NW 12.7 mph - 0.24 in Rain Heavy Rain
9:53 AM 46.0 °F 42.5 °F 45.0 °F 96% 29.84 in 2.5 mi WNW 6.9 mph - 0.29 in Rain Rain
9:57 AM 46.4 °F 41.9 °F 44.6 °F 93% 29.85 in 3.0 mi WNW 9.2 mph - 0.02 in Rain Rain
10:05 AM 46.4 °F 41.5 °F 44.6 °F 93% 29.88 in 3.0 mi WNW 10.4 mph - 0.06 in Rain Rain
10:10 AM 46.4 °F 41.5 °F 44.6 °F 93% 29.88 in 2.0 mi WNW 10.4 mph - 0.09 in Rain Heavy Rain
10:22 AM 44.6 °F 40.7 °F 44.6 °F 100% 29.89 in 1.5 mi WNW 6.9 mph - 0.17 in Rain Heavy Rain
10:29 AM 44.6 °F 41.4 °F 44.6 °F 100% 29.87 in 1.5 mi NNW 5.8 mph - 0.21 in Rain Heavy Rain
10:34 AM 44.6 °F 43.1 °F 44.6 °F 100% 29.86 in 2.0 mi Variable 3.5 mph - 0.22 in Rain Rain
10:42 AM 44.6 °F 40.2 °F 44.6 °F 100% 29.87 in 4.0 mi NW 8.1 mph - 0.24 in Rain Rain
10:53 AM 45.0 °F 40.1 °F 43.0 °F 93% 29.86 in 5.0 mi WNW 9.2 mph - 0.26 in Rain Rain
11:03 AM 44.6 °F 40.2 °F 42.8 °F 93% 29.87 in 5.0 mi WNW 8.1 mph - 0.01 in Rain Rain
11:24 AM 44.6 °F 42.2 °F 42.8 °F 93% 29.82 in 5.0 mi North 4.6 mph - 0.03 in Rain Light Rain
11:32 AM 44.6 °F 39.2 °F 42.8 °F 93% 29.85 in 6.0 mi NW 10.4 mph - 0.04 in Rain Light Rain
11:46 AM 44.6 °F 39.2 °F 42.8 °F 93% 29.89 in 9.0 mi West 10.4 mph 18.4 mph 0.05 in Rain Light Rain
11:53 AM 45.0 °F 39.7 °F 42.1 °F 90% 29.90 in 10.0 mi WNW 10.4 mph 18.4 mph 0.05 in Rain Light Rain
12:53 PM 43.0 °F 36.4 °F 41.0 °F 93% 29.97 in 4.0 mi WNW 12.7 mph 21.9 mph 0.00 in Rain Light Rain
12:58 PM 42.8 °F 36.6 °F 41.0 °F 93% 29.97 in 3.0 mi WNW 11.5 mph 21.9 mph 0.00 in Rain Light Rain
1:07 PM 42.8 °F 35.8 °F 41.0 °F 93% 29.97 in 2.5 mi WNW 13.8 mph 19.6 mph 0.01 in Rain Light Rain
1:09 PM 42.8 °F 36.2 °F 41.0 °F 93% 29.97 in 2.5 mi WNW 12.7 mph - 0.01 in Rain Light Rain
1:16 PM 42.8 °F 36.6 °F 42.8 °F 100% 29.98 in 2.5 mi WNW 11.5 mph 17.3 mph 0.01 in Rain Light Rain
1:27 PM 42.8 °F 35.8 °F 41.0 °F 93% 29.98 in 3.0 mi WNW 13.8 mph 21.9 mph 0.01 in Rain Light Rain
1:42 PM 42.8 °F 35.4 °F 41.0 °F 93% 29.98 in 3.0 mi WNW 15.0 mph 23.0 mph 0.01 in Rain Light Rain
1:49 PM 42.8 °F 34.8 °F 39.2 °F 87% 29.99 in 5.0 mi NW 17.3 mph 26.5 mph 0.02 in Rain Light Rain
1:53 PM 42.1 °F 33.9 °F 39.0 °F 89% 29.99 in 10.0 mi NW 17.3 mph 26.5 mph 0.02 in   Overcast
2:53 PM 42.1 °F 33.3 °F 37.9 °F 85% 30.03 in 10.0 mi WNW 19.6 mph 27.6 mph N/A   Overcast
3:53 PM 44.1 °F 36.2 °F 37.0 °F 76% 30.06 in 10.0 mi WNW 18.4 mph 27.6 mph N/A   Overcast
4:53 PM 44.1 °F 36.5 °F 34.0 °F 68% 30.10 in 10.0 mi WNW 17.3 mph - N/A   Overcast
5:53 PM 45.0 °F 38.2 °F 34.0 °F 65% 30.13 in 10.0 mi WNW 15.0 mph 19.6 mph N/A   Overcast
6:53 PM 46.0 °F 40.6 °F 34.0 °F 63% 30.16 in 10.0 mi WNW 11.5 mph - N/A   Mostly Cloudy
7:53 PM 46.0 °F 41.9 °F 35.1 °F 66% 30.18 in 10.0 mi West 8.1 mph - N/A   Scattered Clouds
8:53 PM 43.0 °F 39.5 °F 36.0 °F 76% 30.20 in 10.0 mi NW 5.8 mph - N/A   Mostly Cloudy
9:53 PM 42.1 °F - 37.0 °F 82% 30.24 in 10.0 mi Calm Calm - N/A   Mostly Cloudy
10:53 PM 37.0 °F - 35.1 °F 93% 30.25 in 10.0 mi Calm Calm - N/A   Clear
11:53 PM 36.0 °F - 34.0 °F 93% 30.25 in 10.0 mi Calm Calm - N/A   Clear